Terug naar catalogus

EUTE 1-F1

ECS 1

ActiefCommunicatieGEO
NORAD 14128·PAYLOAD·🇪🇺 EU

Gelanceerd Jun 16, 1983 vanaf Guiana Space Centre

Loading…

TLE

VersSource: Space-Track

Epoch: Sep 14, 2026, 05:34 UTC

1 14128U 83058A   26257.23216420  .00000015  00000-0  00000-0 0  9998
2 14128  11.7260 329.1991 0010080 189.6542 170.3371  0.98867929 47598

Volg EUTE 1-F1 in realtime met AllMySat

Download on the App Store